Weather History for KSGJ - October, 2011

Change the Weather History Date:

Wednesday, October 5, 2011

  Actual Average (WUND) Record (WUND)
Temperature  
Mean Temperature 76 °F -  
Max Temperature 81 °F - - (-1)
Min Temperature 71 °F - - (-1)
Cooling Degree Days 11    
Growing Degree Days 26 (Base 50)    
Moisture  
Dew Point 61 °F    
Average Humidity 60    
Maximum Humidity 69    
Minimum Humidity 52    
Precipitation  
Precipitation 0.00 in - - ()
Sea Level Pressure  
Sea Level Pressure 30.15 in    
Wind  
Wind Speed 12 mph (NE)    
Max Wind Speed 18 mph    
Max Gust Speed 22 mph    
Visibility 10 miles    
Events      
Averages and records for this station are not official NWS values.
T = Trace of Precipitation, MM = Missing Value Source: NWS Daily Summary

Daily Weather History Graph

Daily Weather History Graph

Search for Another Location

Airport or City:

Trip Planner

Search our weather history database for the weather conditions in past years. The results will help you decide how hot, cold, wet, or windy it might be!

Date:

Astronomy

Oct. 05, 2011 Rise Set
Actual Time 7:20 AM EDT 7:06 PM EDT
Civil Twilight 6:56 AM EDT 7:30 PM EDT
Nautical Twilight 6:29 AM EDT 7:57 PM EDT
Astronomical Twilight 6:01 AM EDT 8:25 PM EDT
Moon 3:22 PM EDT (10/5) 1:31 AM EDT (10/5)
Length of Visible Light 12h 33m
Length of Day
11h 45m
Waxing Gibbous, 66% of the Moon is Illuminated
Oct 5
Waxing Gibbous
Oct 11
Full
Oct 19
Last Quarter
Oct 26
New
Nov 2
First Quarter

Hourly Weather History & Observations

Time (EDT) Temp. Heat Index Dew Point Humidity Pressure Visibility Wind Dir Wind Speed Gust Speed Precip Events Conditions
12:58 AM 73.0 °F - 57.9 °F 59% 30.17 in 10.0 mi ENE 10.4 mph - N/A   Clear
1:58 AM 73.0 °F - 57.9 °F 59% 30.15 in 10.0 mi NE 11.5 mph - N/A   Clear
2:58 AM 72.0 °F - 57.9 °F 61% 30.14 in 10.0 mi NE 9.2 mph - N/A   Clear
3:58 AM 73.0 °F - 57.9 °F 59% 30.14 in 10.0 mi NE 10.4 mph - N/A   Clear
4:58 AM 72.0 °F - 57.9 °F 61% 30.14 in 10.0 mi NE 9.2 mph - N/A   Clear
5:58 AM 72.0 °F - 59.0 °F 64% 30.15 in 10.0 mi NE 8.1 mph - N/A   Partly Cloudy
6:58 AM 71.1 °F - 59.0 °F 66% 30.16 in 10.0 mi NE 9.2 mph - N/A   Clear
7:58 AM 73.0 °F - 59.0 °F 61% 30.17 in 10.0 mi NE 10.4 mph - N/A   Partly Cloudy
8:58 AM 77.0 °F - 59.0 °F 54% 30.18 in 10.0 mi NE 9.2 mph - N/A   Clear
9:58 AM 79.0 °F - 61.0 °F 54% 30.18 in 10.0 mi NE 10.4 mph - N/A   Clear
10:58 AM 79.0 °F - 64.0 °F 60% 30.19 in 10.0 mi NE 16.1 mph - N/A   Partly Cloudy
11:58 AM 80.1 °F 81.5 °F 63.0 °F 56% 30.18 in 10.0 mi NE 18.4 mph 21.9 mph N/A   Mostly Cloudy
12:58 PM 81.0 °F 81.9 °F 62.1 °F 52% 30.17 in 10.0 mi NE 17.3 mph - N/A   Scattered Clouds
1:58 PM 80.1 °F 81.2 °F 62.1 °F 54% 30.15 in 10.0 mi NNE 17.3 mph - N/A   Partly Cloudy
2:58 PM 80.1 °F 81.2 °F 62.1 °F 54% 30.14 in 10.0 mi NNE 16.1 mph - N/A   Mostly Cloudy
3:58 PM 80.1 °F 81.1 °F 61.0 °F 52% 30.13 in 10.0 mi NE 15.0 mph 20.7 mph N/A   Mostly Cloudy
5:58 PM 77.0 °F - 61.0 °F 58% 30.13 in 10.0 mi NE 16.1 mph - N/A   Partly Cloudy
6:58 PM 75.0 °F - 61.0 °F 62% 30.12 in 10.0 mi NNE 11.5 mph - N/A   Scattered Clouds
7:58 PM 75.0 °F - 62.1 °F 64% 30.13 in 10.0 mi NE 11.5 mph - N/A   Partly Cloudy
8:58 PM 73.9 °F - 63.0 °F 68% 30.13 in 10.0 mi NE 11.5 mph - N/A   Clear
9:58 PM 73.9 °F - 63.0 °F 68% 30.14 in 10.0 mi NE 10.4 mph - N/A   Clear
10:58 PM 75.0 °F - 64.0 °F 69% 30.13 in 10.0 mi NE 9.2 mph - N/A   Scattered Clouds
11:58 PM 75.0 °F - 64.0 °F 69% 30.13 in 10.0 mi NE 15.0 mph - N/A   Clear